Location: Unspecified
(0.0000°N, 0.0000°E)
Time: 13:31:51
(UTC+02:00)

ARIANE 5 R/B - Visible Passes

Search period start: 22 May 2015 00:00
Search period end: 01 June 2015 00:00
Orbit: 579 x 35639 km, 7.3° (Epoch: 21 May)

Date Brightness Start Highest point End Pass type
(mag) Time Alt. Az. Time Alt. Az. Time Alt. Az.
22 May 8.4 16:11:55 10° W 01:44:45 51° WSW 01:44:45 51° WSW visible
23 May 7.6 13:10:05 10° W 22:07:49 85° S 22:56:22 52° ESE visible
25 May 2.9 07:16:17 12° W 07:19:35 79° S 07:24:01 10° E visible
25 May 9.1 18:46:26 10° W 03:55:03 - W 03:55:03 - W visible
26 May 8.1 15:29:15 10° W 01:06:39 64° WSW 01:06:39 64° WSW visible
27 May 7.3 12:28:51 10° W 12:42:41 74° N 22:18:14 38° ESE visible
29 May 2.9 06:37:14 40° WSW 06:38:24 72° S 06:42:04 10° E visible
29 May 8.8 17:58:39 10° W 03:16:54 17° W 03:16:54 17° W visible
30 May 7.9 14:47:01 10° W 00:28:27 75° SSW 00:28:27 75° SSW visible
31 May 7.0 11:47:44 10° W 11:58:45 72° N 21:40:01 25° E visible
